Вернуться в каталог

STARLINK-30775

АктивенСвязьVLEO
NORAD 58139·PAYLOAD·🇺🇸 United States

Запущен Oct 22, 2023 с Cape Canaveral Space Force Station

Loading…

Ближайшие Пролёты (ближайшие 24 часа)

TLE

СвежийSource: CelesTrak SupGP

Эпоха: Sep 14, 2026, 14:43 UTC

1 58139C 23162X   26257.61368056  .00142340  00000+0  51580-2 0  2578
2 58139  43.0018 145.1967 0001437 256.5256 138.8084 15.27493533    18

Отслеживайте STARLINK-30775 в реальном времени с AllMySat

Download on the App Store